Flag for Hungary Weather past 2 weeks in Debrecen, Hungary

Now
50 °F

Mostly cloudy.


Feels Like: 46 °F
Forecast: 33 / 45 °F
Wind: 12 mph from Southwest

Location: Debrecen Airport

Current Time: Mar 2, 2015 at 8:17:21 PM

Latest Report: Mar 2, 2015 at 4:45 PM


Visibility: N/A

Pressure: 29.71 "Hg

Humidity: 76%

Dew point: 43 °F

Location of DebrecenLocation

Historic Weather in Debrecen — Graph

°F

Debrecen temperature yesterday

Maximum temperature yesterday: 46 °F (at 12:15 PM)
Minimum temperature yesterday: 41 °F (at 6:45 AM)
Average temperature yesterday: 45 °F

Past Weeks' High & Low Weather Summary

 TemperatureHumidityPressure
High61 °F (Feb 24, 2:15 PM)100% (Feb 23, 5:15 AM)30.74 "Hg (Feb 23, 5:15 AM)
Low16 °F (Feb 18, 6:45 AM)18% (Feb 17, 3:45 PM)29.68 "Hg (Feb 24, 12:15 PM)
Average43 °F71%30.07 "Hg
* Reported Feb 15 4:15 PM — Mar 2 4:45 PM, Debrecen, Weather by CustomWeather, © 2015

Note: Actual official high and low records may vary slightly from our data, if they occured in-between our weather recording intervals... More about our weather records

Advertising

Debrecen weather history for previous 24 hours

 ConditionsComfort  
Time TempWeatherWind HumidityBarometerVisibility
4:45 PM
Mon, Mar 2
50 °FMostly cloudy.12 mph76%29.71 "HgN/A
4:15 PM50 °FLight rain. Mostly cloudy.12 mph76%29.71 "HgN/A
3:45 PM52 °FLight rain. Mostly cloudy.12 mph72%29.71 "HgN/A
3:15 PM52 °FLight rain. Mostly cloudy.14 mph72%29.71 "HgN/A
2:45 PM52 °FOvercast.17 mph72%29.74 "HgN/A
2:15 PM52 °FOvercast.18 mph72%29.74 "HgN/A
1:45 PM52 °FOvercast.17 mph72%29.74 "HgN/A
1:15 PM52 °FMostly cloudy.21 mph72%29.74 "HgN/A
12:47 PM52 °FCool.16 mph72%29.77 "HgN/A
12:15 PM50 °FBroken clouds.17 mph76%29.77 "HgN/A
11:45 AM48 °FBroken clouds.17 mph76%29.80 "HgN/A
11:15 AM48 °FMore clouds than sun.16 mph76%29.80 "Hg6 mi
10:45 AM46 °FMore clouds than sun.16 mph76%29.83 "Hg6 mi
10:15 AM45 °FOvercast.14 mph81%29.83 "Hg5 mi
9:45 AM45 °FOvercast.13 mph81%29.83 "Hg5 mi
9:15 AM45 °FPartly sunny.14 mph81%29.86 "Hg4 mi
8:45 AM43 °FPartly sunny.12 mph87%29.86 "Hg4 mi
8:15 AM43 °FFog.9 mph87%29.86 "Hg3 mi
7:45 AM41 °FFog.12 mph93%29.86 "Hg3 mi
7:15 AM41 °FFog.9 mph100%29.86 "Hg2 mi
6:45 AM41 °FFog.10 mph93%29.86 "Hg2 mi
6:15 AM41 °FFog.10 mph93%29.86 "Hg2 mi
5:45 AM41 °FFog.9 mph100%29.86 "Hg3 mi
5:15 AM41 °FFog.6 mph93%29.89 "Hg3 mi
Weather by CustomWeather, © 2015

See weather overviewHow to use our weather pages